Home > Time Zones > World Clock > Weather > Iran > Tabriz > Past weeks

Flag for Iran Weather past 2 weeks in Tabriz, Iran

Now
73 °F

Sunny.


Feels Like: 76 °F
Forecast: 53 / 78 °F
Wind: 7 mph from West

Location: Tabriz Airport

Current Time: Sep 22, 2014 at 6:48:39 PM

Latest Report: Sep 22, 2014 at 6:30 PM


Visibility: 10 mi

Pressure: 29.92 "Hg

Humidity: 22%

Dew point: 32 °F

Location of TabrizLocation

Historic Weather in Tabriz — Graph

°F

Tabriz temperature yesterday

Maximum temperature yesterday: 84 °F (at 3:00 PM)
Minimum temperature yesterday: 61 °F (at 5:30 AM)
Average temperature yesterday: 73 °F

Past Weeks' High & Low Weather Summary

 TemperatureHumidityPressure
High91 °F (Sep 12, 3:30 PM)72% (Sep 19, 7:30 AM)30.33 "Hg (Sep 19, 7:30 AM)
Low52 °F (Sep 22, 6:30 AM)7% (Sep 8, 7:30 PM)29.83 "Hg (Sep 21, 5:00 PM)
Average76 °F33%30.00 "Hg
* Reported Sep 7 6:30 PM — Sep 22 5:30 PM, Tabriz, Weather by CustomWeather, © 2014

Note: Actual official high and low records may vary slightly from our data, if they occured in-between our weather recording intervals... More about our weather records

Advertising

Tabriz weather history for previous 24 hours

 ConditionsComfort  
Time TempWeatherWind HumidityBarometerVisibility
5:30 PM
Sep 22
77 °FPassing clouds.9 mph19%29.92 "HgN/A
5:00 PM77 °FPassing clouds.12 mph21%29.92 "HgN/A
4:30 PM79 °FPassing clouds.7 mph23%29.92 "HgN/A
4:00 PM81 °FPassing clouds.12 mph21%29.92 "HgN/A
3:30 PM79 °FPassing clouds.5 mph24%29.92 "HgN/A
3:00 PM81 °FPassing clouds.7 mph24%29.95 "HgN/A
2:30 PM79 °FPassing clouds.12 mph26%29.95 "HgN/A
2:00 PM79 °FPassing clouds.12 mph24%29.95 "HgN/A
1:30 PM79 °FPassing clouds.5 mph26%29.95 "HgN/A
1:00 PM77 °FPassing clouds.5 mph28%29.98 "HgN/A
12:30 PM77 °FPassing clouds.14 mph26%29.98 "HgN/A
12:00 PM77 °FPassing clouds.2 mph28%29.98 "HgN/A
11:30 AM73 °FPassing clouds.5 mph33%30.01 "HgN/A
11:00 AM73 °FPassing clouds.9 mph33%30.01 "HgN/A
10:30 AM72 °FSunny.5 mph36%30.01 "Hg10 mi
10:00 AM70 °FSunny.7 mph40%30.01 "Hg10 mi
9:30 AM68 °FSunny.7 mph46%30.01 "Hg10 mi
9:00 AM68 °FPassing clouds.7 mph49%30.01 "HgN/A
8:30 AM66 °FPassing clouds.2 mph49%30.01 "HgN/A
8:00 AM64 °FPassing clouds.2 mph52%30.01 "HgN/A
7:30 AM57 °FPassing clouds.2 mph63%30.01 "HgN/A
7:00 AM55 °FPassing clouds.No wind63%30.01 "HgN/A
6:30 AM52 °FPassing clouds.No wind67%29.98 "HgN/A
5:30 AM54 °FClear.No wind63%29.98 "Hg10 mi
4:30 AM57 °FClear.No wind63%29.98 "Hg10 mi
3:30 AM59 °FClear.No wind63%29.98 "Hg10 mi
2:30 AM61 °FPassing clouds.9 mph55%29.98 "HgN/A
1:30 AM61 °FPassing clouds.5 mph59%29.98 "HgN/A
12:30 AM63 °FPassing clouds.5 mph56%29.98 "HgN/A
11:30 PM
Sep 21
64 °FPassing clouds.No wind52%29.98 "HgN/A
11:30 PM66 °FPassing clouds.7 mph49%29.95 "HgN/A
10:30 PM70 °FPassing clouds.14 mph40%29.92 "HgN/A
9:30 PM73 °FPassing clouds.16 mph25%29.92 "HgN/A
8:30 PM73 °FPassing clouds.9 mph25%29.89 "HgN/A
7:30 PM79 °FPassing clouds.9 mph23%29.86 "HgN/A
7:00 PM81 °FPassing clouds.14 mph23%29.86 "HgN/A
6:30 PM82 °FPassing clouds.18 mph21%29.83 "HgN/A
6:00 PM82 °FPassing clouds.18 mph19%29.83 "HgN/A
Weather by CustomWeather, © 2014

See weather overviewHow to use our weather pages